Location: Great Hallingbury
(51.8333°N, 0.1833°E)
Time: 09:01:16
(UTC+00:00)

Daily predictions for brighter satellites

Satellite Brightness Start Highest point End
(mag) Time Altitude Azimuth Time Altitude Azimuth Time Altitude Azimuth
FALCON 9 DEB 3.2 21:01:31 10° WNW 21:04:47 76° N 21:08:04 10° E
Cosmos 1110 Rocket 4.3 21:00:49 10° S 21:05:51 47° ESE 21:10:57 10° NE
Helios 1A Rocket 3.1 21:01:55 10° SSE 21:05:57 64° ENE 21:10:02 10° N
Cosmos 2322 Rocket 4.2 21:02:35 10° NNW 21:06:44 20° NNE 21:10:53 10° E
ERS-1 Rocket 3.1 21:03:28 10° SSE 21:08:27 68° ENE 21:13:28 10° N
Resurs 01 Rocket 3.2 21:05:01 10° SSW 21:09:03 33° W 21:13:08 10° NNW
Cosmos 2228 3.0 21:06:03 10° N 21:10:18 75° ENE 21:14:32 10° SSE
Cosmos 2058 Rocket 4.4 21:07:16 10° N 21:11:04 27° ENE 21:14:52 10° SE
Cosmos 2184 Rocket 4.1 21:07:58 10° N 21:14:11 87° W 21:20:24 10° S
Lacrosse 5 4.1 21:13:23 10° W 21:16:26 16° WSW 21:19:28 10° SSW
IRAS Rocket 4.3 21:12:39 10° NNE 21:18:18 89° ESE 21:23:51 10° SSW
Cosmos 1408 4.3 21:16:32 10° SE 21:18:49 17° E 21:21:08 10° NE
Cosmos 968 Rocket 3.8 21:16:14 10° NNW 21:21:23 58° ENE 21:26:33 10° SE
Cosmos 1328 4.3 21:22:37 10° SSE 21:26:25 43° E 21:30:13 10° NNE
USA 276 2.0 21:23:51 10° W 21:26:51 62° S 21:29:51 10° E
Cosmos 2360 4.5 21:24:19 10° NW 21:30:01 67° WSW 21:35:41 10° SSE
H-2A R/B 4.0 21:26:05 10° N 21:30:05 34° WNW 21:34:08 10° SW
SJ 16-02 3.7 21:27:42 10° N 21:30:20 15° NE 21:32:57 10° E
Cosmos 1867 3.7 21:25:35 10° NW 21:31:06 78° NE 21:36:29 10° SE
Cosmos 1455 4.4 21:28:29 10° NW 21:31:31 23° W 21:34:33 10° SW
Cosmos 2082 Rocket 2.9 21:28:46 10° S 21:33:54 35° ESE 21:39:02 10° NE
USA 245 4.4 21:31:37 10° S 21:35:20 36° WSW 21:38:23 10° NNW
Cosmos 1536 Rocket 4.2 21:31:59 10° SSW 21:36:15 57° WNW 21:40:34 10° N
USA 267 4.3 21:31:45 10° ENE 21:36:45 23° SE 21:41:43 10° S
Cosmos 1606 Rocket 3.5 21:34:40 10° NNW 21:39:01 87° WSW 21:43:22 10° S
GP-B 4.1 21:35:59 10° NNE 21:40:02 33° E 21:43:34 12° SE
ARIANE 5 R/B 2.7 21:35:43 11° SSE 21:40:02 76° ENE 21:44:29 10° NNW
Cosmos 2341 Rocket 4.3 21:34:58 10° N 21:41:14 58° ENE 21:47:01 12° SSE
Cosmos 2360 Rocket 4.1 21:38:26 10° NNW 21:42:53 23° NE 21:47:18 10° E
Meteor 1-21 Rocket 4.3 21:39:02 10° S 21:44:39 86° ESE 21:50:25 10° NNE
Cosmos 192 4.5 21:44:15 10° S 21:49:01 55° ESE 21:53:49 10° NNE
Cosmos 1726 Rocket 3.8 21:57:25 10° NNW 22:01:44 67° W 22:05:41 12° S
Cosmos 1892 3.0 22:02:06 16° SSE 22:04:54 47° E 22:08:34 10° NNE
Nadezhda 1 Rocket 4.3 22:05:23 10° SSW 22:11:25 66° WNW 22:17:30 10° N
Cosmos 2181 Rocket 4.3 22:07:22 14° SSE 22:12:32 53° E 22:18:36 10° NNE
USA 234 3.4 22:07:01 10° ESE 22:13:34 77° NNE 22:20:09 10° WNW
Cosmos 1633 4.3 22:12:09 14° ESE 22:13:41 17° E 22:16:03 10° NE
Cosmos 1697 Rocket 4.0 22:11:21 10° NW 22:16:15 31° WSW 22:21:06 10° SSW
Cosmos 1980 Rocket 2.6 22:10:43 10° NW 22:16:18 57° WSW 22:20:52 15° S
SL-16 R/B 2.8 22:10:47 10° NNW 22:16:21 52° NE 22:21:23 13° SE
Cosmos 1486 Rocket 4.1 22:11:44 10° NNW 22:16:58 75° ENE 22:21:05 17° SSE
Cosmos 2369 4.3 22:14:22 10° NW 22:19:52 49° WSW 22:24:30 14° S
Cosmos 2219 Rocket 4.3 22:15:40 10° NNW 22:19:55 21° NNE 22:24:09 10° E
CZ-2C R/B 4.5 22:19:55 10° N 22:24:22 52° WNW 22:28:43 10° SW
TIMED 4.5 22:21:54 12° SSW 22:25:55 69° ESE 22:30:16 10° NNE
COSMOS 2406 3.4 22:22:10 10° SW 22:27:56 78° WNW 22:33:44 10° NNE
Cosmos-2242 4.0 22:24:26 10° N 22:28:22 35° ENE 22:31:12 16° SE
ATLAS 5 CENTAUR R/B 1.9 22:29:23 19° S 22:31:33 35° ESE 22:35:24 10° ENE
Cosmos 1869 3.2 22:28:44 10° N 22:32:38 79° ENE 22:35:09 21° SSE
Cosmos 1602 Rocket 4.3 22:32:11 19° SSE 22:34:41 37° E 22:38:41 10° NNE
In-Cosmos 22 Rocket 4.2 22:30:23 15° S 22:35:01 73° E 22:40:26 10° NNE
Meteor 1-27 4.2 22:32:48 10° NNW 22:38:24 84° W 22:42:35 18° S
Terra 3.5 22:35:53 10° SSW 22:39:54 27° W 22:43:56 10° NW
FALCON 9 DEB 3.5 22:37:50 10° W 22:40:57 42° SSW 22:42:17 27° SSE
ASTEX 1 3.6 22:36:32 10° N 22:41:32 74° W 22:45:50 14° SSW
ALOS 2 3.4 22:39:48 17° SE 22:42:51 43° ENE 22:47:02 10° N
Cosmos 1833 Rocket 4.0 22:38:41 10° WSW 22:43:59 42° NW 22:49:21 10° NNE
Cosmos 1354 Rocket 4.2 22:39:53 10° NNW 22:45:12 66° ENE 22:49:06 18° SE
Cosmos 1892 Rocket 4.5 22:41:46 10° SSW 22:46:00 46° WNW 22:50:13 10° N
BREEZE-M DEB (TANK) 3.4 22:44:33 10° W 22:47:29 65° S 22:57:32 10° ESE
SL-8 Rocket 4.3 22:41:50 10° NNW 22:47:59 62° W 22:53:01 16° S
Cosmos 2058 Rocket 4.1 22:45:03 10° NNW 22:49:10 39° W 22:52:35 14° SSW
ADEOS Rocket 3.8 22:45:43 16° SE 22:51:46 65° ENE 22:59:28 10° NNW
Cosmos 2322 Rocket 2.4 22:46:13 10° NNW 22:51:54 67° NE 22:56:24 17° SE
Cosmos 1825 2.1 22:49:40 21° S 22:52:04 89° W 22:55:51 10° N
Cosmos 1408 3.6 22:50:12 11° SW 22:53:13 38° WNW 22:56:29 10° N
Cosmos 1503 Rocket 4.0 22:49:39 10° NNW 22:55:00 90° W 22:58:35 21° SSE
Cosmos 1626 Rocket 3.5 22:54:43 20° S 22:57:42 89° E 23:02:05 10° N
USA 276 2.6 22:59:33 10° W 23:02:23 36° SSW 23:02:50 34° S
Cosmos 2278 4.4 22:57:08 10° NW 23:02:32 43° WSW 23:06:17 19° S
Cosmos 1777 Rocket 4.3 22:57:44 10° NNW 23:03:01 63° ENE 23:06:53 18° SE
Cosmos 2333 Rocket 3.3 23:01:31 10° NNW 23:07:01 42° NE 23:12:28 10° ESE
SJ 16-02 1.4 23:05:11 10° NNW 23:09:39 81° ENE 23:12:19 24° SSE
Cosmos 1825 Rocket 4.3 23:08:17 22° SE 23:10:28 38° E 23:14:30 10° NNE
Gbstr 26 Del rocket 4.4 23:11:08 21° SE 23:11:24 21° SE 23:15:04 10° E
Cosmos 1340 Rocket 4.2 23:13:04 19° SE 23:14:43 26° E 23:18:02 10° NE
Cosmos 2082 Rocket 3.0 23:12:17 10° SW 23:17:50 51° NW 23:23:24 10° NNE
Meteor 2-20 4.4 23:13:52 20° S 23:18:12 77° E 23:24:18 10° NNE
H-2A R/B 3.6 23:14:33 10° NNE 23:18:44 59° ESE 23:20:56 26° S
USA 267 3.2 23:14:07 10° ENE 23:20:38 65° SE 23:27:08 10° SW
Cosmos 2221 3.7 23:21:27 10° N 23:25:29 35° ENE 23:28:17 17° SE
Cosmos 1606 2.6 23:22:30 10° N 23:26:23 87° W 23:28:16 29° S
Cosmos 2360 Rocket 2.3 23:22:06 10° NNW 23:27:49 79° ENE 23:32:00 19° SE
Cosmos 2058 3.3 23:26:08 26° SSE 23:28:11 51° E 23:32:16 10° NNE
Cosmos 1934 Rocket 4.2 23:22:45 10° N 23:28:49 65° ENE 23:33:06 20° SSE
Spot 4 4.4 23:27:39 22° SSW 23:30:31 49° W 23:35:12 10° NNW
Meteor 2-2 Rocket 4.4 23:34:31 10° NNW 23:40:35 87° ENE 23:44:36 23° SSE
Cosmos 44 4.2 23:41:21 24° SSE 23:42:49 28° ESE 23:46:39 10° ENE
Cosmos 2237 4.4 23:37:48 10° NW 23:43:27 59° WSW 23:46:53 24° S
Meteor 2-20 Rocket 4.4 23:42:26 22° S 23:46:37 89° E 23:52:46 10° N
Cosmos 1633 3.5 23:45:55 20° SW 23:47:54 38° WNW 23:51:11 10° N
Cosmos 1758 Rocket 4.0 23:45:44 21° SSW 23:48:29 57° WNW 23:52:52 10° N
Cosmos 2237 Rocket 4.3 23:47:17 10° NNW 23:51:55 25° NE 23:56:32 10° E
COSMOS 2428 3.6 23:48:17 10° NNW 23:53:49 47° NE 23:59:18 10° SE
